Regional Weather Roundup
Issued by NWS State College, PA

Home | Current Version | Previous Version | Graphics & Text | Print | Product List | Glossary On
Versions: 1 2 3 4 5 6 7 8 9 10 11 12 13 14 15 16 17 18 19 20 21 22 23 24 25 26 27 28 29 30 31 32 33 34 35 36 37 38 39 40 41 42 43 44 45 46 47 48 49 50
823
ASUS41 KCTP 260903
RWRCTP

REGIONAL WEATHER ROUNDUP
NATIONAL WEATHER SERVICE STATE COLLEGE PA
500 AM EDT WED APR 26 2017

Note: "fair" indicates few or no clouds below 12,000 feet with no
significant weather and/or obstructions to visibility.

* = STATION THAT DOES NOT REPORT PRECIPITATION /E.G. RAIN...SNOW...ETC/
    THUNDER OR FOG.

PAZ002>004-007>009-013>016-020>023-029>032-261000-
WESTERN PENNSYLVANIA

CITY           SKY/WX    TMP DP  RH WIND       PRES   REMARKS
ERIE           CLOUDY    59  53  80 SE3       29.77R
MEADVILLE      CLOUDY    55  52  89 E5        29.77S
FRANKLIN*      CLOUDY    54  48  82 S3        29.79R
NEW CASTLE     FOG       48  48 100 SW3       29.78R VSB 3/4
BEAVER COUNTY  NOT AVBL
BUTLER*        CLOUDY    55  52  88 E6        29.79R
PITTSBURGH INT CLEAR     52  52 100 CALM      29.76R
PITTSBURGH     MOCLDY    53  50  89 NE3       29.76R FOG
INDIANA*       CLOUDY    54  54 100 CALM      29.79F
LATROBE        CLOUDY    52  52 100 CALM      29.77S
WASHINGTON CO* CLOUDY    45  43  93 CALM      29.77S VSB 1/4
$$

PAZ004>006-010>012-017>019-024>028-033>037-041-042-045-046-049>053-261000-
CENTRAL PENNSYLVANIA

CITY           SKY/WX    TMP DP  RH WIND       PRES   REMARKS
BRADFORD       CLOUDY    51  51 100 E3        29.78F
DUBOIS         CLOUDY    52  49  89 NE3       29.76F
CLEARFIELD     CLOUDY    53  53 100 N5        29.77F FOG
JOHNSTOWN      FOG       51  51 100 CALM      29.75F VSB 3/4
ALTOONA        CLOUDY    54  53  97 NE5       29.76S FOG
STATE COLLEGE  CLOUDY    53  52  99 NE7       29.76F FOG
WILLIAMSPORT   CLOUDY    56  53  90 CALM      29.77R
SELINSGROVE    LGT RAIN  54  53  97 N5        29.77R FOG
FT INDIANTOWN  DRIZZLE   54  54 100 NE7       29.73S FOG
CAPITAL CITY   LGT RAIN  56  53  90 NW6       29.74R FOG
HARRISBURG     DRIZZLE   55  55 100 NW5       29.73R FOG
YORK           CLOUDY    54  54 100 N8        29.73R
$$

PAZ038>040-043-044-047-048-054-055-060>062-067>071-261000-
EASTERN PENNSYLVANIA

CITY           SKY/WX    TMP DP  RH WIND       PRES   REMARKS
SCRANTON       CLOUDY    53  51  93 NE7       29.79S
MOUNT POCONO   FOG       49  49 100 E12       29.78S VSB 1
ALLENTOWN      LGT RAIN  53  50  89 NE10      29.75S
QUAKERTOWN*    CLOUDY    54  54 100 NE7       29.74S
READING        CLOUDY    53  53 100 NE7       29.72S
LANCASTER      CLOUDY    54  54 100 N8        29.72S FOG
COATESVILLE    CLOUDY    54  54 100 NE7G14    29.71F FOG
POTTSTOWN      CLOUDY    54  53  97 NE13G18   29.72F
BLUE BELL      CLOUDY    54  54 100 NE5       29.72S
DOYLESTOWN     CLOUDY    53  53 100 NE12      29.72F FOG
WILLOW GROVE   NOT AVBL
NORTH PHILA    CLOUDY    57  55  93 NE14      29.71F FOG
PHILADELPHIA   LGT RAIN  56  54  93 NE12      29.70F
$$




USA.gov is the U.S. government's official web portal to all federal, state and local government web resources and services.